Simultaneous Nadir Overpasses (SNOs) Predictions

Prediction of SNOs between LANDSAT-8 and NPP Satellite Orbit:

Table of predicted SNOs for the next 14.0 days since TLE Epoch: 10/16/2021
Index Date (LANDSAT-8) Time (LANDSAT-8) Lat,Lon (LANDSAT-8) SZA (LANDSAT-8 ) Date (NPP) Time (NPP) Lat,Lon (NPP) SZA (NPP ) Distance(km) Time Diff (sec)
1 10/16/2021 06:09:17 70.37, 84.60 79.25 10/16/2021 06:08:05 70.44, 83.83 79.32 29.76 72
2 10/16/2021 06:58:51 -70.03,-108.26 101.08 10/16/2021 06:58:41 -70.03,-108.21 101.09 1.84 10
3 10/16/2021 07:48:18 69.94, 59.25 78.84 10/16/2021 07:49:25 69.92, 59.27 78.82 2.75 67
4 10/18/2021 22:25:51 70.12,-159.89 79.97 10/18/2021 22:24:58 70.11,-159.89 79.96 1.26 53
5 10/18/2021 23:15:21 -70.00, 7.58 100.14 10/18/2021 23:15:40 -70.01, 7.58 100.13 0.61 19
6 10/19/2021 00:05:03 69.08, 173.97 78.95 10/19/2021 00:06:09 69.10, 176.21 78.98 88.85 66
7 10/21/2021 14:42:21 70.08, -44.07 80.89 10/21/2021 14:41:57 70.10, -44.11 80.91 2.41 24
8 10/21/2021 15:31:51 -69.97, 123.41 99.22 10/21/2021 15:32:38 -69.94, 123.44 99.24 3.25 47
9 10/24/2021 06:09:24 -70.14, -95.75 98.13 10/24/2021 06:08:11 -70.14, -95.73 98.13 0.51 73
10 10/24/2021 06:58:51 70.04, 71.75 81.78 10/24/2021 06:58:55 70.03, 71.74 81.78 0.44 4
11 10/24/2021 07:48:23 -69.82,-120.92 98.43 10/24/2021 07:49:35 -69.82,-120.63 98.42 11.40 72
12 10/26/2021 22:25:53 -70.09, 20.07 97.26 10/26/2021 22:25:08 -70.08, 20.12 97.27 2.56 45
13 10/26/2021 23:15:20 69.98,-172.44 82.65 10/26/2021 23:15:52 69.97,-172.41 82.64 1.75 32
14 10/29/2021 13:52:44 70.64, -30.89 84.18 10/29/2021 13:51:34 70.66, -32.35 84.20 53.71 70
15 10/29/2021 14:42:22 -70.10, 135.95 96.36 10/29/2021 14:42:07 -70.08, 135.89 96.38 3.20 15
16 10/29/2021 15:31:50 69.93, -56.64 83.48 10/29/2021 15:32:50 69.92, -56.57 83.48 3.09 60



Historial Predications of SNOs between LANDSAT-8 and NPP
